Location: La Chalp
(44.7167°N, 6.8500°E)
Time: 20:24:16
(UTC+00:00)

Daily predictions for brighter satellites

Satellite Brightness Start Highest point End
(mag) Time Altitude Azimuth Time Altitude Azimuth Time Altitude Azimuth
SL-08 R/B 4.1 17:55:23 10° NNE 17:59:45 31° E 18:04:02 10° SSE
Cosmos 158 Rocket 3.9 17:55:58 10° S 18:00:42 55° ESE 18:05:28 10° NNE
SeaSat 1 2.5 17:58:07 10° NNE 18:03:01 62° ESE 18:07:51 10° SSW
Helios 1A 4.1 18:00:17 10° NE 18:03:28 22° E 18:06:37 10° SE
Sich 1 4.2 18:00:46 10° SE 18:04:03 22° E 18:07:22 10° NE
Okean O Rocket 3.7 18:05:51 10° ENE 18:06:01 10° ENE 18:06:12 10° NE
Tiangong -0.5 18:04:06 10° SSW 18:06:32 21° SSE 18:08:59 10° ESE
USA 290 4.5 18:04:06 10° NW 18:07:03 30° WSW 18:09:58 10° SSW
Cosmos 1328 Rocket 3.9 18:03:35 10° NNW 18:07:53 71° W 18:12:11 10° S
COSMO-SKYMED 1 3.4 18:04:14 10° N 18:08:31 57° WNW 18:12:45 10° SSW
Cosmos 1607 4.3 18:02:40 10° S 18:08:44 45° ESE 18:14:50 10° NE
Aureole 3 Rocket 4.4 18:05:35 10° SE 18:10:10 25° E 18:13:45 10° NE
Meteor 1-4 Rocket 3.5 18:11:16 10° NNW 18:13:44 36° W 18:16:11 10° SSW
Helios 1B rocket 2.3 18:10:39 10° SSE 18:14:29 83° W 18:18:20 10° NNW
CZ-4 R/B 2.4 18:11:34 10° SE 18:14:47 26° ENE 18:18:04 10° NNE
Cosmos 2369 Rocket 3.5 18:10:58 10° N 18:15:30 23° NE 18:19:41 11° E
Cosmos 1464 Rocket 4.1 18:10:44 10° S 18:16:55 59° E 18:23:11 10° NNE
ARIANE 6 FM1 Upper Stage 4.2 18:16:03 10° SSE 18:18:48 17° ESE 18:21:36 10° ENE
TRACE 4.4 18:15:35 10° NNE 18:18:54 56° E 18:22:10 10° S
Cosmos 1980 4.1 18:13:35 10° SW 18:19:14 68° WNW 18:24:56 10° NNE
NOSS 3-4 (A) 4.4 18:15:37 10° NNW 18:21:58 42° NE 18:28:32 13° ESE
NOSS 3-4 (C) 4.4 18:15:43 10° NNW 18:22:03 41° NE 18:28:36 13° ESE
CZ-4B R/B 3.7 18:20:56 10° SE 18:24:30 32° ENE 18:28:13 10° N
Cosmos 1805 Rocket 4.1 18:23:49 10° SSE 18:27:45 35° E 18:31:42 10° NNE
Meteor 1-13 Rocket 4.2 18:22:31 10° N 18:28:19 68° ENE 18:33:57 10° SSE
Landsat 7 4.5 18:23:54 10° S 18:28:31 58° W 18:33:10 10° NNW
USA 234 4.4 18:22:51 10° SSE 18:28:59 42° SW 18:35:11 10° WNW
Cosmos 1441 Rocket 4.5 18:29:41 16° ESE 18:30:33 17° E 18:32:59 10° NE
Cosmos 2084 Rocket 4.2 18:28:53 10° S 18:32:40 30° ESE 18:36:22 10° ENE
Cosmos 1975 3.8 18:30:32 10° SE 18:33:41 24° E 18:36:50 10° NE
Resurs 01 Rocket 2.4 18:30:24 12° SE 18:33:52 31° ENE 18:37:47 10° N
Cosmos 1707 3.9 18:36:49 10° NNW 18:40:11 40° W 18:43:31 10° SSW
Cosmos 2034 Rocket 3.9 18:38:02 10° S 18:44:05 64° E 18:50:11 10° NNE
Meteor PRIRODA 3.2 18:42:39 10° SSE 18:45:53 77° ENE 18:49:10 10° N
USA 306 4.4 18:44:25 10° NW 18:46:51 19° NNE 18:48:52 13° NE
ISS -1.9 18:44:06 10° WNW 18:46:55 24° N 18:49:13 13° NE
Cosmos 2208 Rocket 4.4 18:44:47 10° SSW 18:50:02 67° WNW 18:55:25 10° NNE
ACS3 Solar Sail 2.4 18:48:36 17° SE 18:53:07 39° ENE 18:59:00 10° N
Cosmos 1733 4.3 18:49:54 10° SSW 18:53:08 40° WNW 18:56:24 10° N
SAR-Lupe-2 4.1 18:49:57 10° S 18:53:28 60° WSW 18:57:02 10° NNW
SL-16 R/B 2.1 18:48:21 10° SSW 18:53:58 68° ESE 18:59:37 10° NNE
Cosmos 1805 2.9 18:53:07 10° S 18:56:45 82° E 19:00:25 10° N
Cosmos 1315 Rocket 3.1 18:54:18 10° NNW 18:58:15 66° W 19:02:10 10° S
Resurs 1-3 4.3 18:57:28 10° S 19:01:42 54° W 19:05:58 10° NNW
SPOT 1/Viking Rocket 4.0 19:00:07 10° S 19:05:14 64° W 19:10:21 10° NNW
Cosmos 1943 4.0 19:02:22 10° SSE 19:07:44 27° E 19:11:46 10° NE
Meteor 1-11 Rocket 4.3 19:01:37 10° SSW 19:07:07 60° WNW 19:12:35 10° N
ATLAS CENTAUR R/B 4.1 19:05:37 10° WNW 19:07:41 14° NW 19:09:47 10° N
Okean 3 4.4 19:05:07 10° NNE 19:08:31 28° ENE 19:08:31 28° ENE
Cosmos 1428 Rocket 4.4 19:03:18 10° N 19:09:27 89° E 19:15:36 10° S
Cosmos 783 Rocket 4.4 19:04:44 10° S 19:09:57 65° ESE 19:15:08 10° NNE
SL-14 R/B 3.1 19:06:46 10° N 19:10:37 84° E 19:12:47 25° S
ADEOS 4.3 19:07:25 10° S 19:12:30 55° W 19:17:38 10° NNW
CSL-04 Rocket 3.6 19:11:57 23° SSE 19:15:19 67° ENE 19:20:34 10° N
Meteor 1-21 4.2 19:10:03 10° N 19:15:50 69° ENE 19:19:45 21° SSE
CZ-4B R/B 3.0 19:13:15 19° SSE 19:17:09 76° ENE 19:22:29 10° NNW
Cosmos 1500 Rocket 4.4 19:18:03 10° SSW 19:22:16 50° WNW 19:26:30 10° N
USA 186 2.1 19:24:41 47° SSW 19:25:22 63° W 19:28:34 10° NNW
Cosmos 1743 Rocket 4.3 19:28:01 10° SSW 19:32:14 53° WNW 19:36:31 10° N
Cosmos 2026 Rocket 4.1 19:32:15 10° NNW 19:38:25 75° W 19:43:31 15° S
Okean O Rocket 1.5 19:41:02 70° SE 19:41:30 82° ENE 19:45:56 10° NNW
CARTOSAT-1 4.3 19:40:01 24° SSW 19:42:18 50° W 19:46:27 10° NNW
Tiangong 0.0 19:39:48 10° WSW 19:41:06 21° WSW 19:41:06 21° WSW
GEOS 3 Rocket 3.6 19:41:58 54° E 19:42:57 67° NE 19:48:05 10° NNW
Cosmos 1092 Rocket 4.4 19:42:44 10° NNW 19:49:01 65° W 19:54:22 15° S
CZ-4 R/B 3.4 19:45:59 10° SSW 19:49:13 26° W 19:52:33 10° NW
SPOT 5 3.2 19:54:01 47° NNE 19:54:01 47° NNE 19:57:22 10° N
Cosmos 1656 Rocket 4.3 19:47:42 10° NW 19:53:10 53° WSW 19:55:32 31° SSW
Cosmos 2297 4.1 19:49:42 10° NNW 19:55:15 59° WSW 19:57:17 37° S
ARIANE 6 FM1 Upper Stage 3.1 19:53:28 10° SW 19:57:42 62° NW 19:58:11 57° NNW
Terra 3.2 20:00:58 27° NNE 20:00:58 27° NNE 20:03:38 10° N
Cosmos 2369 Rocket 2.4 19:54:21 10° NNW 20:00:01 67° WSW 20:01:29 48° S
BREEZE-M DEB (TANK) 3.9 19:43:52 10° W 20:01:52 67° N 20:03:29 47° ENE
Aureole 3 4.3 20:00:05 10° N 20:03:54 53° NNE 20:03:54 53° NNE
CRYOSAT 2 4.4 19:59:58 10° N 20:04:52 76° W 20:05:19 69° SW
Cosmos 1634 Rocket 4.5 19:58:52 10° SSW 20:05:05 61° WNW 20:11:23 10° N
Cosmos 1633 Rocket 3.8 20:09:43 49° NNW 20:09:43 49° NNW 20:13:04 10° N
Okean 1-7 4.3 20:04:58 10° N 20:07:25 33° N 20:07:25 33° N
Cosmos 2228 Rocket 3.8 20:05:13 10° NNW 20:09:39 50° W 20:10:04 48° WSW
Resurs 01 Rocket 3.5 20:07:53 17° SW 20:10:17 27° W 20:14:03 10° NW
MetOp-B 4.0 20:11:40 78° NNE 20:11:40 78° NNE 20:16:47 10° NNW
NOSS 3-4 (A) 4.3 20:06:19 10° NW 20:13:10 57° WSW 20:15:59 38° S
NOSS 3-4 (C) 4.3 20:06:24 10° NW 20:13:17 57° WSW 20:16:02 39° S
Okean-O 3.4 20:17:08 49° NNW 20:17:08 49° NNW 20:20:25 10° NNW
MOS 1 Rocket 3.7 20:20:11 69° N 20:20:11 69° N 20:24:54 10° NNW
ISS -0.8 20:21:11 10° NW 20:22:09 17° NW 20:22:09 17° NW
ERS-1 Rocket 3.7 20:26:14 45° N 20:26:14 45° N 20:29:46 10° N
IRS-1A Rocket 4.4 20:27:24 71° N 20:27:24 71° N 20:32:24 10° NNW
ACS3 Solar Sail 3.0 20:33:50 24° SW 20:37:04 39° W 20:43:03 10° NNW
SL-16 R/B 4.4 20:34:11 10° W 20:38:36 23° NW 20:43:02 10° N
Cosmos 1943 4.0 20:49:01 35° WSW 20:50:48 47° WNW 20:56:16 10° NNE
ATLAS 2AS CENTAUR R/B 3.9 20:58:12 10° NNW 21:03:49 31° NNE 21:03:49 31° NNE
USA 267 4.3 21:18:35 36° NNE 21:18:56 36° NNE 21:24:48 10° NW
Terra 4.4 21:39:41 16° NW 21:39:41 16° NW 21:40:56 10° NW
Cosmos 2344 4.2 22:08:26 10° NW 22:15:07 65° NW 22:15:07 65° NW
